Wind_Speed
66 70 73 76 79 81 84 88 92 94 100 104 108 113 116 120 127 132 134 139 139 138 133 118 104 89 73 62 53 46 43 37 29 33 28 31 30 33 40 47 49 57 65
70 73 76 79 82 85 88 93 96 99 103 107 112 115 120 125 131 134 136 141 140 136 126 111 96 83 67 58 49 44 41 34 28 27 26 27 27 31 36 42 45 54 65
75 78 81 84 86 89 92 96 100 103 107 111 115 118 123 128 133 136 139 143 139 132 118 103 89 76 64 54 46 41 37 30 26 23 25 23 25 28 33 41 47 56 64
83 83 85 88 91 93 96 99 103 107 111 115 119 122 126 130 135 139 142 144 137 127 110 95 82 69 61 50 44 38 33 27 23 21 21 22 25 28 36 43 48 53 58
87 88 90 92 95 96 100 104 108 110 114 117 121 125 129 132 138 141 145 144 133 123 105 89 77 65 57 47 41 35 30 24 20 19 19 23 23 30 41 46 51 53 60
90 91 93 96 98 100 102 107 112 113 116 120 124 127 132 135 140 142 149 141 127 116 100 84 71 61 53 43 38 31 27 22 17 18 21 24 28 39 44 48 52 55 60
93 94 96 99 101 102 107 111 113 116 119 123 127 130 135 138 141 145 149 135 122 110 95 77 66 59 49 40 35 27 24 20 16 16 23 27 36 44 49 54 55 56 63
96 96 99 102 105 107 109 112 115 118 122 126 129 133 137 140 144 148 145 132 118 103 89 71 62 55 45 37 31 24 22 18 15 17 27 32 42 48 50 56 59 62 65
98 99 103 106 107 108 112 114 118 121 125 129 132 136 138 141 146 149 135 130 116 98 82 67 58 51 41 34 28 21 20 17 15 20 30 40 46 52 56 60 63 68 72
104 105 107 108 109 111 114 118 120 125 128 131 134 138 139 143 148 144 125 126 110 92 75 63 53 48 38 32 26 18 17 17 17 22 36 43 49 56 58 60 65 73 77
107 108 109 111 111 114 118 120 123 127 131 133 137 139 142 145 149 135 121 118 103 88 70 59 49 44 35 30 25 18 16 18 19 25 38 45 51 57 60 62 71 80 83
109 111 112 114 116 119 121 123 126 131 133 136 139 141 144 148 139 125 115 110 94 80 66 54 47 40 33 29 23 18 16 19 21 27 39 48 54 60 65 71 78 84 83
113 114 115 117 120 121 124 127 130 134 135 138 139 143 146 145 130 122 110 100 86 72 61 51 43 36 32 27 23 17 16 19 22 29 41 50 57 62 67 74 79 86 86
116 117 119 121 123 126 129 130 133 135 138 139 142 142 144 139 126 119 107 94 79 65 56 48 42 32 31 26 23 17 17 20 23 30 41 49 58 65 68 74 80 88 89
120 122 124 125 129 130 131 133 135 137 140 142 143 145 142 132 122 112 99 86 72 60 52 42 37 29 28 24 22 18 17 21 25 31 41 50 59 68 71 76 83 87 93
125 126 129 131 132 135 135 135 137 140 142 144 145 142 131 119 112 105 90 76 65 56 48 41 33 27 26 23 20 18 17 21 25 31 41 50 58 69 73 74 81 85 93
131 132 132 135 136 137 139 139 141 140 141 146 141 136 126 112 103 98 82 69 59 53 45 39 31 26 24 22 19 18 18 22 27 31 40 49 57 67 73 75 81 88 91
134 135 136 136 138 138 139 141 141 143 148 143 135 129 119 108 99 86 74 61 55 46 43 37 27 24 22 21 18 18 20 23 27 32 39 47 55 63 71 75 78 85 93
137 137 138 139 140 139 139 141 144 143 146 140 133 120 109 100 88 73 66 56 51 42 38 33 26 23 20 20 18 18 20 24 27 32 37 45 52 61 68 73 77 85 94
139 138 138 136 138 138 138 139 143 143 133 126 117 108 102 94 82 68 57 51 46 39 37 29 23 22 20 19 18 19 20 25 28 32 36 42 49 57 67 72 77 82 93
137 136 136 137 138 137 139 142 133 126 119 112 105 99 92 83 73 60 51 47 41 37 34 27 23 20 18 18 18 19 20 25 29 32 35 39 47 54 64 70 76 82 89
137 137 137 140 140 142 132 121 117 113 106 102 98 91 84 75 63 52 46 43 37 35 30 25 22 20 17 17 18 20 21 25 29 32 35 37 43 51 59 68 74 79 86
134 134 129 123 117 114 111 109 106 102 97 94 91 84 77 67 54 48 42 39 34 33 27 22 20 19 17 17 19 21 22 26 29 31 35 37 41 49 57 64 71 76 80
111 108 108 107 105 105 103 99 97 96 93 88 82 77 69 58 50 45 39 34 31 30 25 21 20 18 16 17 19 22 23 27 30 31 35 38 41 46 54 59 64 72 77
101 101 101 100 99 96 95 95 92 90 85 79 74 70 60 52 48 42 36 30 28 28 23 20 19 17 16 18 21 23 24 28 31 32 36 39 41 45 50 57 63 66 69
98 98 97 93 92 91 91 90 88 82 77 71 64 58 53 48 43 38 33 28 26 25 22 19 18 16 16 19 22 24 26 29 31 32 36 39 41 44 48 52 58 63 66
Wind_Direction
304 304 305 307 308 309 310 312 313 315 316 317 318 320 323 323 323 324 327 329 332 332 329 325 324 323 321 320 317 314 310 302 292 275 264 253 244 233 223 217 212 207 205
303 304 304 306 307 308 309 311 313 315 315 316 318 320 322 323 323 325 329 332 334 333 330 326 325 324 322 321 319 315 311 302 292 276 260 251 238 227 218 214 207 201 201
301 303 305 305 307 308 310 311 312 314 314 316 319 321 321 322 324 326 330 334 334 332 329 327 325 324 324 322 320 316 311 301 291 275 259 246 230 219 210 206 203 200 198
299 302 305 306 306 308 310 310 312 313 314 317 319 321 322 323 324 327 330 334 334 332 328 327 325 324 325 323 321 316 309 299 287 272 256 237 222 211 202 199 202 199 196
298 300 303 305 306 307 308 310 311 313 314 318 320 320 321 323 325 328 331 333 334 332 328 327 326 325 324 322 320 315 305 294 280 265 245 225 212 202 198 195 197 197 195
296 297 301 304 305 306 308 308 311 313 316 317 319 320 322 323 325 328 331 333 333 332 328 327 326 325 323 321 318 312 302 287 273 255 228 213 196 195 191 193 195 195 190
294 297 300 302 304 305 306 309 310 313 315 317 318 319 321 323 325 329 331 331 333 332 327 328 326 324 321 320 315 309 297 282 266 238 219 203 194 192 187 187 189 192 192
294 296 298 300 302 305 308 308 311 312 315 316 318 319 321 324 326 328 331 330 333 330 327 328 325 323 320 318 311 305 291 274 255 222 209 197 195 191 188 187 188 189 192
293 294 297 301 303 305 306 309 309 312 314 316 317 318 321 324 326 328 331 330 332 329 328 327 324 321 318 314 307 299 283 268 244 214 201 197 194 190 189 186 188 187 188
292 295 298 300 302 305 306 307 310 312 313 315 316 318 321 324 325 328 329 331 330 327 327 325 323 319 315 310 303 292 274 258 234 209 199 200 194 192 192 188 186 186 186
292 295 297 300 301 302 305 307 309 311 313 314 316 319 321 324 325 327 329 331 330 326 325 323 322 316 311 304 299 285 261 250 227 207 200 201 196 194 191 188 185 185 188
292 295 297 298 300 302 304 306 309 311 312 314 316 318 321 324 326 326 329 331 328 325 323 322 320 313 307 299 294 279 253 240 225 206 201 200 197 193 190 188 188 187 186
293 294 296 298 299 302 303 306 308 309 312 313 316 318 321 325 326 325 330 330 327 323 322 320 319 311 302 294 288 276 245 232 222 206 201 201 198 196 194 190 191 187 186
290 293 295 297 299 300 303 305 307 310 311 313 315 319 322 324 325 325 330 329 325 322 321 318 315 307 296 290 284 273 243 227 218 208 202 202 197 196 197 194 194 190 187
289 292 293 295 297 300 303 305 307 308 310 312 316 319 322 324 323 325 329 327 323 321 318 314 309 300 289 284 278 268 242 226 217 209 200 202 197 197 199 198 196 194 191
288 290 293 295 298 299 302 304 306 308 311 313 316 319 321 320 322 326 327 325 322 320 316 313 307 295 282 277 270 264 239 226 218 209 201 202 199 198 202 199 200 197 194
288 291 293 293 298 299 302 305 305 308 311 314 316 319 320 319 323 327 325 322 321 318 314 311 305 290 278 271 264 256 236 222 216 209 204 200 202 198 201 203 200 200 197
287 289 292 295 296 300 301 304 307 308 313 314 316 317 317 319 324 325 323 321 319 315 312 310 300 282 273 265 258 249 234 219 216 211 204 202 203 201 201 202 203 200 200
287 290 292 294 295 299 301 302 306 308 309 311 313 314 316 321 323 323 321 319 316 313 310 305 295 277 265 258 251 244 233 217 213 212 206 203 201 204 201 201 202 201 200
287 290 291 293 296 298 299 301 303 306 308 310 313 314 316 322 321 322 320 319 314 311 308 303 287 269 258 251 246 240 231 218 211 211 209 204 202 201 202 201 202 202 202
284 288 290 291 295 297 298 301 303 305 308 310 312 314 318 320 320 319 319 316 311 308 305 299 285 267 255 248 243 238 229 217 211 207 210 206 203 202 202 202 201 203 205
283 287 288 290 294 295 297 301 303 306 309 310 312 316 318 318 318 318 318 312 309 305 303 294 278 262 252 245 238 233 226 214 210 206 207 207 203 203 202 203 203 203 207
283 286 289 291 292 295 299 301 305 306 308 309 314 317 317 317 318 318 315 309 307 302 301 290 272 257 247 242 234 226 220 210 207 207 203 206 204 202 203 202 204 205 208
286 288 289 292 295 297 301 302 304 306 308 312 314 312 313 314 316 314 310 306 304 300 298 285 266 253 243 239 229 220 213 205 203 203 201 203 205 202 202 204 204 205 207
288 290 291 294 297 299 301 303 304 306 309 312 311 310 310 311 312 310 305 302 300 297 293 279 259 249 241 233 222 213 208 200 199 199 199 199 202 204 201 202 204 206 208
289 291 294 296 297 299 301 302 304 307 309 310 309 307 307 308 307 304 299 297 294 292 287 271 252 242 235 224 214 207 202 196 196 196 197 196 200 201 201 201 202 205 208
Height
10554 10548 10542 10534 10525 10516 10506 10495 10484 10473 10461 10448 10434 10419 10402 10383 10364 10345 10326 10303 10276 10245 10212 10182 10161 10142 10126 10112 10101 10091 10085 10079 10077 10072 10077 10078 10083 10090 10098 10108 10124 10139 10157
10538 10532 10526 10518 10509 10499 10489 10479 10467 10455 10443 10430 10416 10400 10382 10364 10344 10325 10305 10281 10253 10224 10193 10165 10144 10127 10113 10101 10090 10082 10076 10071 10069 10066 10069 10071 10077 10084 10094 10105 10120 10136 10150
10522 10516 10509 10501 10492 10482 10472 10461 10449 10438 10424 10411 10397 10381 10362 10344 10324 10303 10282 10262 10233 10204 10176 10150 10130 10114 10102 10091 10081 10073 10069 10065 10062 10062 10063 10067 10073 10081 10092 10104 10117 10129 10144
10505 10499 10492 10483 10475 10465 10454 10443 10431 10420 10407 10392 10377 10360 10343 10324 10303 10284 10262 10245 10214 10184 10161 10138 10119 10104 10092 10082 10074 10067 10062 10059 10057 10058 10059 10065 10071 10079 10089 10102 10115 10129 10144
10487 10481 10474 10466 10457 10447 10437 10426 10413 10401 10388 10374 10359 10340 10323 10306 10285 10266 10244 10227 10202 10169 10145 10126 10108 10094 10083 10075 10068 10062 10056 10054 10052 10053 10056 10062 10070 10078 10087 10101 10113 10126 10141
10470 10463 10457 10449 10440 10431 10420 10408 10395 10382 10370 10354 10341 10324 10305 10288 10267 10246 10225 10204 10186 10156 10132 10114 10098 10086 10076 10068 10062 10056 10051 10049 10049 10051 10054 10060 10068 10074 10088 10101 10112 10124 10137
10452 10446 10440 10431 10423 10414 10402 10390 10377 10363 10350 10337 10322 10306 10288 10271 10249 10230 10206 10183 10168 10145 10118 10105 10088 10077 10068 10062 10056 10051 10047 10046 10047 10050 10053 10060 10067 10075 10086 10096 10109 10123 10137
10434 10428 10421 10414 10405 10396 10385 10372 10358 10344 10332 10318 10303 10288 10270 10254 10234 10215 10193 10165 10147 10131 10109 10097 10079 10070 10061 10056 10051 10047 10042 10043 10043 10048 10052 10060 10065 10075 10088 10100 10108 10120 10135
10415 10410 10403 10395 10387 10377 10366 10353 10339 10326 10313 10298 10286 10270 10254 10236 10218 10199 10180 10152 10130 10114 10100 10086 10071 10062 10054 10049 10046 10043 10038 10039 10041 10046 10052 10056 10064 10073 10084 10098 10108 10121 10134
10395 10390 10384 10376 10367 10358 10346 10333 10321 10309 10295 10281 10264 10252 10236 10219 10200 10182 10165 10140 10120 10103 10090 10076 10065 10054 10047 10043 10040 10038 10035 10035 10038 10044 10050 10053 10062 10071 10082 10096 10107 10119 10131
10375 10372 10364 10356 10347 10337 10327 10315 10303 10290 10278 10263 10247 10234 10219 10203 10183 10164 10150 10128 10106 10086 10077 10066 10057 10046 10040 10037 10034 10033 10032 10031 10035 10040 10047 10052 10061 10071 10082 10096 10106 10116 10128
10356 10350 10344 10335 10326 10317 10306 10296 10286 10273 10259 10246 10229 10213 10200 10183 10164 10146 10133 10113 10093 10075 10064 10056 10047 10039 10034 10030 10028 10028 10028 10028 10031 10036 10043 10049 10058 10070 10080 10091 10102 10114 10132
10334 10328 10321 10313 10305 10296 10286 10278 10266 10253 10241 10227 10214 10198 10180 10162 10141 10125 10115 10097 10079 10064 10053 10045 10038 10032 10027 10024 10022 10022 10022 10023 10027 10032 10039 10046 10054 10066 10076 10088 10100 10117 10131
10311 10305 10299 10292 10284 10275 10268 10258 10247 10235 10220 10208 10196 10183 10164 10144 10126 10109 10097 10080 10066 10054 10044 10035 10027 10024 10020 10018 10015 10016 10017 10018 10021 10027 10034 10042 10052 10062 10073 10085 10099 10115 10130
10290 10284 10278 10270 10263 10256 10248 10238 10227 10217 10204 10190 10180 10166 10151 10131 10113 10096 10083 10068 10053 10042 10034 10028 10020 10016 10013 10011 10009 10009 10011 10013 10016 10022 10030 10038 10049 10058 10068 10082 10096 10112 10127
10270 10264 10256 10249 10240 10232 10225 10219 10209 10194 10182 10170 10158 10147 10133 10118 10100 10085 10068 10054 10041 10031 10024 10017 10012 10008 10006 10004 10002 10003 10005 10007 10011 10016 10024 10032 10044 10055 10064 10080 10093 10108 10124
10249 10243 10236 10226 10220 10208 10200 10190 10181 10176 10164 10149 10134 10122 10110 10096 10083 10068 10052 10040 10029 10019 10013 10008 10002 10000 9998 9997 9996 9997 9998 10001 10004 10010 10017 10026 10036 10050 10061 10073 10089 10104 10119
10227 10221 10213 10206 10197 10190 10182 10171 10158 10143 10130 10120 10114 10100 10084 10073 10064 10050 10036 10025 10016 10010 10002 9998 9994 9992 9992 9991 9991 9991 9992 9995 9999 10004 10011 10020 10030 10042 10055 10068 10083 10099 10114
10202 10197 10190 10183 10176 10169 10161 10149 10137 10127 10118 10106 10092 10079 10066 10055 10044 10036 10021 10011 10003 9998 9993 9990 9986 9984 9984 9983 9984 9984 9986 9990 9993 9998 10005 10013 10024 10035 10047 10061 10076 10092 10105
10179 10175 10166 10160 10153 10144 10137 10128 10118 10109 10099 10088 10075 10063 10049 10037 10024 10017 10007 9998 9992 9986 9983 9980 9977 9976 9976 9976 9976 9978 9980 9983 9987 9992 9998 10007 10016 10028 10039 10053 10067 10082 10096
10152 10150 10144 10135 10130 10121 10113 10104 10096 10087 10077 10067 10055 10043 10033 10023 10014 10004 9994 9987 9982 9977 9973 9970 9968 9968 9968 9969 9970 9972 9974 9977 9982 9986 9992 10000 10009 10020 10033 10045 10059 10072 10086
10128 10125 10119 10113 10108 10101 10091 10083 10076 10067 10055 10045 10033 10023 10013 10005 9998 9990 9982 9976 9971 9967 9964 9961 9960 9961 9961 9961 9963 9965 9968 9971 9976 9981 9986 9994 10004 10013 10025 10037 10050 10063 10075
10105 10101 10095 10089 10082 10076 10070 10062 10054 10044 10035 10025 10016 10005 9995 9987 9982 9976 9971 9966 9961 9957 9954 9952 9952 9953 9953 9954 9956 9959 9962 9966 9971 9976 9982 9988 9997 10007 10016 10029 10042 10054 10066
10077 10074 10069 10064 10059 10053 10047 10039 10031 10023 10014 10007 9998 9988 9979 9973 9967 9964 9960 9956 9952 9949 9946 9944 9945 9945 9946 9947 9949 9952 9956 9960 9965 9971 9977 9984 9992 10001 10010 10020 10033 10047 10058
10053 10050 10045 10040 10035 10030 10023 10016 10009 10002 9995 9988 9980 9971 9963 9958 9954 9952 9949 9946 9943 9940 9937 9937 9937 9938 9939 9941 9943 9946 9950 9954 9960 9966 9972 9978 9986 9996 10006 10016 10026 10038 10051
10030 10026 10023 10018 10013 10007 10001 9994 9988 9982 9977 9970 9961 9955 9947 9944 9942 9941 9938 9937 9934 9931 9929 9929 9930 9931 9933 9935 9938 9941 9945 9950 9956 9962 9968 9974 9982 9990 10000 10011 10021 10033 10044